User: anonymous   Login
Location: Warszawa
(52.2500°N, 21.0000°E)
Time: 21:42:29
(UTC+02:00)
Language:

deb Explorer IX - Orbit

View from above orbital plane
View from above orbital plane
View from above satellite
View from above satellite

Ground track
Ground track

The orbit data is extracted from the following two-line orbital elements,

1    85U 61004C   24151.19680119  .00020356  00000-0  26869-2 0  9991
2    85  38.7404 103.9435 0266615 189.0883 170.4987 14.57730911137723
Epoch (UTC): 30 May 2024 04:43:23
Eccentricity: 0.0266615
inclination: 38.7404°
perigee height: 512 km
apogee height: 889 km
right ascension of ascending node: 103.9435°
argument of perigee: 189.0883°
revolutions per day: 14.57730911
mean anomaly at epoch: 170.4987°
orbit number at epoch: 13772

The dashed part of the orbit path shows where the satellite is in the earth's shadow,  

DLR